Wind_Speed
44 45 46 50 51 55 52 53 51 54 46 43 33 45 46 45 45 46 45 38 33 26 24 21 21 21 21 21 21 23 13 11 12 10 8 9 9 9 7 6 7 6 9 3 3
45 44 44 46 48 52 56 55 54 50 54 47 41 25 33 39 40 50 47 42 33 30 26 22 24 24 22 21 24 23 20 14 8 13 13 7 8 10 8 7 7 5 8 4 3
46 45 44 44 45 48 53 59 59 54 57 56 45 41 28 28 29 47 49 44 35 33 27 25 26 27 24 25 22 26 25 11 15 21 16 12 10 14 9 6 7 10 8 6 6
47 46 45 45 45 46 50 55 60 57 53 55 58 38 35 21 19 25 44 41 36 35 30 26 29 30 29 26 26 24 26 12 17 19 16 17 14 11 9 9 10 12 9 6 7
44 45 44 45 44 45 49 52 60 59 49 50 50 59 43 36 37 5 33 40 39 37 32 28 28 27 28 25 22 28 23 22 20 21 18 17 16 15 15 10 12 15 13 9 8
42 42 42 42 44 44 47 51 56 59 49 49 41 45 50 59 35 34 17 18 38 37 32 30 28 25 25 24 29 28 21 19 27 23 20 20 21 22 16 16 14 16 15 13 10
43 42 41 42 44 46 46 49 55 57 52 39 45 35 49 58 35 43 29 22 17 32 32 30 29 29 29 27 32 31 21 26 29 26 26 25 28 29 21 20 15 14 17 15 12
42 39 39 42 43 46 45 44 51 53 47 36 39 50 41 54 33 38 38 24 28 21 32 30 33 32 28 31 29 30 27 26 28 24 24 23 34 22 19 23 20 17 17 17 15
41 41 39 39 43 44 45 41 46 46 43 40 40 45 50 53 51 50 47 34 30 26 29 29 33 33 32 29 30 32 20 23 16 21 25 26 26 12 17 24 21 19 17 19 17
41 40 40 39 40 41 41 42 40 41 42 47 45 41 51 42 53 48 45 47 40 31 34 34 36 35 38 35 28 22 30 16 26 23 24 23 27 23 14 23 25 22 19 22 19
40 39 41 39 38 38 38 38 41 43 47 55 56 61 47 49 35 47 45 47 44 37 41 43 42 46 42 42 31 13 23 29 23 22 20 24 24 22 24 29 23 26 22 25 25
39 40 41 40 37 38 36 43 48 49 46 53 53 53 66 31 30 52 51 49 44 44 37 39 49 44 33 34 30 19 21 22 20 19 21 25 29 26 20 25 27 25 29 27 29
40 41 41 44 40 44 39 41 41 44 35 49 52 57 62 70 48 56 57 56 56 47 42 44 39 36 31 27 28 25 21 17 19 18 21 22 35 32 30 30 28 28 30 33 29
39 40 41 40 44 40 44 35 38 43 33 35 43 55 56 57 55 50 61 56 49 52 43 33 28 31 34 35 32 30 28 19 18 14 8 8 8 15 8 12 20 21 27 32 34
38 39 38 37 40 42 40 38 39 39 8 25 49 48 58 52 27 58 57 50 56 54 49 39 31 33 42 39 29 22 24 26 24 13 19 20 10 17 7 17 23 19 19 23 35
35 35 35 34 38 39 35 37 31 33 13 24 36 50 63 62 34 58 64 45 46 43 43 32 27 27 36 28 30 29 20 20 17 14 10 25 19 20 21 22 18 21 25 24 24
34 35 36 36 39 39 41 40 30 18 14 26 42 49 62 72 47 66 65 58 41 42 35 29 28 40 32 34 27 30 26 5 3 5 8 8 16 25 9 11 21 22 23 21 17
34 36 37 36 36 40 38 35 19 36 36 14 40 47 65 75 60 65 60 54 54 45 42 35 22 41 35 43 39 39 33 12 7 5 5 19 12 11 11 16 21 17 10 8 12
33 35 36 37 38 37 39 34 17 40 36 31 35 49 41 55 47 66 69 57 57 52 39 37 17 37 31 45 33 38 35 23 4 4 2 9 12 17 17 20 22 20 20 20 20
33 34 37 35 35 33 33 35 35 28 16 32 33 41 44 52 41 60 62 67 43 49 44 27 17 33 39 37 37 34 39 24 12 6 5 7 17 13 6 4 6 10 11 12 14
30 32 33 31 27 31 35 38 45 47 28 22 39 38 37 58 40 57 58 53 61 54 44 34 32 30 36 30 43 39 40 24 19 7 4 0 5 6 15 15 12 15 15 16 17
29 26 27 31 31 32 36 43 44 43 46 34 22 50 57 57 55 43 63 57 65 58 49 39 26 38 36 26 37 37 35 34 20 10 14 2 10 10 3 7 10 9 7 11 17
26 24 24 28 32 34 35 37 37 44 44 48 38 50 55 54 31 48 56 41 58 52 48 42 25 25 16 18 25 45 39 44 27 19 28 10 12 14 18 19 17 17 16 15 13
26 22 28 33 34 33 31 27 34 41 47 51 40 35 50 58 27 47 41 40 57 50 42 42 32 30 26 41 35 35 35 36 31 20 20 36 28 11 7 10 14 13 14 13 15
25 23 29 37 41 34 27 29 32 40 52 50 51 40 53 47 35 50 41 47 50 52 47 43 30 27 20 23 36 45 48 43 46 45 30 42 42 39 20 13 14 15 19 20 26
28 23 30 29 39 36 34 36 36 27 40 52 51 50 52 55 53 54 57 55 58 57 54 43 28 32 20 22 25 38 44 49 47 43 47 37 39 30 29 32 34 27 25 30 35
27 28 25 31 29 34 31 33 35 34 42 42 54 48 58 65 59 54 55 56 58 70 50 43 37 33 19 23 24 22 45 52 50 47 45 42 45 34 25 17 17 12 16 21 23
Wind_Direction
229 228 225 221 220 217 221 226 228 225 227 221 220 227 228 231 218 225 231 233 233 229 226 224 210 206 211 214 205 196 196 215 225 230 263 258 239 223 230 252 263 264 264 298 275
227 229 227 227 223 220 219 223 229 227 222 226 225 211 223 226 220 218 226 228 227 225 221 221 211 207 206 210 215 200 214 210 224 215 223 231 218 245 227 254 271 265 260 255 265
228 228 230 230 227 223 221 221 227 229 221 217 220 229 225 231 232 216 223 223 221 222 220 219 216 212 218 208 215 208 206 210 239 228 226 251 241 244 239 244 315 291 252 258 266
227 226 226 229 230 227 223 221 225 231 227 230 233 219 216 231 237 245 213 220 220 221 221 221 222 219 210 208 210 215 214 204 243 240 241 235 239 239 242 236 225 245 266 278 273
227 228 228 227 227 228 226 222 224 231 234 233 236 233 222 222 239 163 210 216 219 219 222 225 227 223 226 218 218 228 221 221 236 241 233 232 242 249 251 262 255 250 265 267 264
227 228 228 227 226 228 228 224 223 228 233 229 228 243 248 237 233 225 181 212 223 223 224 223 225 226 229 224 222 232 213 212 227 230 233 234 250 244 253 252 258 253 258 253 250
224 227 228 226 226 226 227 223 225 229 232 227 228 236 237 237 238 231 218 221 226 228 229 227 223 213 218 214 224 225 219 220 226 233 242 246 249 253 249 253 249 253 257 250 246
224 226 226 224 225 225 226 222 225 227 229 226 223 231 240 233 222 223 230 236 227 226 218 215 217 215 216 221 223 222 224 218 233 234 239 245 256 250 255 249 245 251 251 251 244
224 223 221 219 222 224 224 222 223 225 223 217 218 227 230 242 230 237 236 237 232 225 215 204 217 215 212 217 225 223 219 208 228 238 242 247 258 273 207 246 241 244 250 253 248
218 217 216 215 217 220 220 218 220 219 213 215 216 221 224 229 222 222 222 234 237 223 206 199 210 210 210 211 212 211 213 205 222 240 245 256 257 241 223 241 249 241 243 251 244
214 212 211 211 212 215 214 208 206 208 210 213 214 210 220 225 230 219 227 211 217 217 212 209 206 208 212 213 209 242 222 223 225 236 241 253 261 264 252 250 247 237 233 245 247
211 209 208 205 208 203 203 209 212 211 211 216 217 220 216 206 227 221 207 198 211 211 204 205 214 215 214 216 207 212 214 207 216 236 244 256 264 265 262 247 249 245 233 237 247
209 207 208 207 208 199 197 208 206 207 215 219 221 220 221 223 215 198 202 214 214 201 198 210 218 205 197 206 208 209 216 219 232 242 251 272 270 263 255 263 257 257 250 233 240
209 206 208 207 212 209 196 196 205 206 222 223 226 225 213 222 223 217 208 203 191 202 199 213 210 212 200 209 204 206 205 196 217 227 226 235 291 251 240 261 258 259 256 244 238
204 204 206 208 212 215 200 203 192 208 235 221 225 225 206 191 201 204 203 194 198 200 191 204 191 198 199 200 194 205 213 209 219 231 246 246 284 272 303 255 256 260 255 247 240
195 196 200 198 207 210 208 204 204 209 213 196 203 209 203 215 224 203 199 190 198 196 196 198 197 192 201 199 203 205 202 207 230 249 259 248 236 272 261 259 260 255 266 265 255
192 193 196 198 205 206 204 209 202 229 210 201 187 198 208 217 205 193 186 191 176 166 174 186 186 199 194 189 203 196 184 123 201 208 238 223 235 235 227 241 241 241 246 258 260
192 195 195 202 206 207 206 201 218 232 211 199 193 192 197 204 215 193 183 184 185 184 167 170 185 190 194 192 194 201 189 172 176 193 210 219 239 251 258 242 241 254 248 244 270
195 199 203 204 211 210 213 214 219 227 223 203 200 180 180 186 182 184 188 185 186 181 175 178 186 193 189 193 195 185 193 198 129 91 87 210 245 254 253 262 257 253 253 261 267
200 205 209 208 214 217 218 218 228 209 232 214 183 183 180 192 184 181 183 189 184 188 193 178 148 177 186 191 201 211 199 188 186 153 217 236 232 231 186 192 242 222 242 251 264
201 206 207 206 205 210 210 222 233 229 242 231 201 186 187 191 185 178 181 198 200 190 191 185 185 174 181 189 189 184 198 198 204 200 177 115 240 242 242 230 213 248 249 260 253
198 195 200 202 200 210 222 226 235 245 233 243 221 211 192 186 182 176 181 192 188 180 185 179 177 168 181 195 203 200 195 190 184 193 220 209 242 208 135 182 189 201 230 269 258
192 180 196 193 195 206 226 231 241 243 238 237 245 205 204 193 183 189 192 195 182 179 179 176 164 143 175 192 187 197 203 200 202 212 215 195 248 251 241 231 240 250 251 253 252
189 180 189 197 207 216 204 222 241 249 249 237 248 202 195 199 199 184 189 190 182 182 186 180 173 189 193 210 195 193 194 198 195 200 204 219 218 201 213 223 233 230 222 221 240
192 194 190 205 214 218 216 241 241 241 244 241 249 215 187 179 192 186 181 185 180 182 188 193 191 194 206 214 207 212 204 199 202 219 203 241 239 231 216 212 234 244 252 245 247
194 192 201 208 221 212 230 234 228 235 237 242 237 203 181 183 191 173 187 191 187 189 195 193 195 193 184 196 205 203 203 203 213 223 223 235 244 244 246 251 255 259 262 257 253
201 198 204 210 209 215 227 237 229 228 234 243 214 194 188 203 204 204 193 186 191 183 183 180 182 172 157 170 175 193 208 212 223 223 227 226 242 244 248 257 240 219 251 251 251
Height
3017 3023 3030 3039 3047 3054 3061 3067 3074 3083 3090 3093 3097 3097 3104 3109 3111 3119 3124 3133 3137 3142 3145 3148 3152 3154 3157 3161 3164 3167 3171 3172 3175 3177 3178 3177 3178 3179 3180 3180 3180 3180 3180 3182 3181
3008 3015 3022 3029 3038 3046 3054 3060 3067 3075 3084 3087 3086 3090 3097 3102 3106 3109 3121 3127 3134 3138 3142 3146 3149 3151 3155 3158 3162 3165 3168 3171 3173 3174 3174 3175 3177 3177 3179 3179 3179 3179 3178 3180 3179
3000 3006 3013 3019 3028 3037 3046 3054 3060 3067 3076 3080 3084 3091 3094 3098 3101 3099 3113 3123 3129 3135 3138 3142 3144 3149 3153 3155 3159 3162 3162 3169 3169 3170 3172 3174 3176 3176 3177 3178 3177 3176 3178 3179 3179
2991 2999 3006 3012 3019 3028 3038 3046 3052 3058 3068 3073 3080 3086 3090 3095 3100 3098 3107 3119 3125 3130 3134 3137 3140 3144 3149 3152 3156 3158 3161 3165 3166 3168 3169 3172 3174 3175 3176 3177 3177 3176 3175 3178 3178
2983 2991 2998 3005 3012 3020 3030 3039 3046 3052 3060 3067 3073 3079 3084 3087 3093 3097 3104 3112 3118 3124 3130 3134 3137 3142 3145 3149 3153 3154 3158 3163 3161 3165 3166 3169 3171 3172 3174 3175 3175 3174 3174 3176 3177
2976 2983 2990 2997 3004 3013 3021 3030 3038 3045 3053 3062 3069 3069 3076 3080 3092 3097 3098 3107 3115 3122 3127 3131 3134 3139 3143 3147 3150 3153 3156 3158 3158 3160 3163 3166 3168 3169 3172 3173 3173 3173 3174 3175 3175
2969 2975 2981 2988 2996 3005 3013 3023 3030 3038 3046 3056 3064 3067 3068 3073 3086 3089 3095 3104 3112 3118 3123 3128 3131 3134 3138 3142 3144 3148 3152 3151 3153 3157 3160 3162 3163 3161 3169 3169 3170 3171 3171 3173 3174
2960 2967 2973 2981 2989 2997 3006 3017 3024 3032 3041 3049 3057 3063 3059 3075 3080 3083 3091 3099 3107 3114 3117 3123 3125 3129 3133 3137 3142 3146 3147 3145 3149 3154 3155 3159 3154 3160 3164 3165 3167 3167 3168 3170 3172
2952 2959 2966 2974 2982 2990 2999 3010 3018 3026 3036 3043 3050 3055 3057 3062 3067 3079 3087 3096 3105 3111 3114 3118 3119 3124 3130 3134 3139 3139 3139 3142 3147 3149 3152 3154 3150 3156 3161 3161 3164 3165 3165 3166 3169
2944 2952 2960 2968 2976 2983 2993 3003 3012 3020 3027 3034 3042 3050 3046 3053 3065 3072 3081 3089 3100 3108 3107 3112 3115 3116 3121 3125 3128 3131 3137 3139 3142 3146 3147 3147 3146 3154 3157 3158 3160 3162 3163 3162 3166
2937 2946 2954 2962 2970 2978 2988 2994 3003 3010 3014 3017 3025 3035 3040 3055 3064 3067 3074 3081 3089 3100 3099 3103 3107 3101 3111 3119 3129 3132 3133 3136 3141 3143 3143 3144 3144 3147 3151 3152 3154 3157 3159 3159 3161
2931 2940 2949 2958 2965 2973 2981 2984 2992 3000 3009 3013 3023 3032 3038 3045 3053 3056 3067 3068 3076 3087 3097 3101 3092 3102 3113 3118 3123 3128 3130 3133 3140 3137 3139 3141 3140 3143 3144 3146 3149 3152 3152 3155 3156
2925 2933 2942 2951 2960 2966 2973 2981 2991 2999 3006 3007 3013 3021 3029 3041 3045 3047 3055 3058 3070 3079 3085 3089 3092 3102 3110 3114 3118 3125 3128 3132 3136 3134 3136 3138 3132 3135 3137 3140 3144 3144 3146 3149 3152
2919 2927 2936 2945 2955 2961 2968 2980 2991 2998 3000 2999 3002 3007 3022 3030 3033 3040 3047 3056 3062 3069 3081 3089 3094 3095 3102 3108 3115 3120 3124 3128 3130 3131 3136 3135 3130 3129 3133 3133 3135 3137 3139 3143 3146
2914 2923 2931 2941 2949 2955 2969 2975 2984 2992 2978 2986 2991 2999 3015 3012 3015 3028 3042 3045 3049 3057 3071 3075 3082 3088 3095 3101 3111 3117 3120 3125 3127 3129 3132 3132 3134 3120 3126 3128 3130 3131 3134 3137 3140
2912 2920 2927 2936 2943 2954 2963 2973 2979 2983 2970 2976 2976 2982 2996 3003 3013 3026 3032 3036 3049 3056 3066 3073 3079 3088 3093 3102 3107 3109 3116 3122 3126 3127 3127 3125 3130 3115 3120 3125 3127 3129 3128 3130 3133
2909 2916 2925 2933 2940 2948 2957 2964 2967 2962 2961 2963 2967 2972 2982 2995 3007 3010 3014 3020 3030 3041 3053 3067 3075 3081 3089 3096 3099 3104 3111 3119 3126 3126 3117 3118 3120 3112 3115 3118 3120 3121 3123 3126 3127
2907 2915 2921 2929 2936 2944 2952 2956 2953 2954 2956 2953 2960 2967 2970 2984 3000 3004 3006 3013 3024 3033 3045 3053 3070 3071 3077 3082 3083 3095 3102 3103 3110 3114 3110 3116 3107 3104 3109 3111 3116 3118 3121 3122 3123
2904 2910 2917 2924 2930 2939 2945 2944 2941 2944 2952 2954 2960 2957 2965 2974 2980 2991 2997 3005 3010 3023 3032 3044 3059 3067 3073 3076 3083 3087 3093 3099 3102 3106 3108 3104 3103 3104 3104 3107 3111 3114 3115 3117 3118
2899 2906 2914 2921 2927 2932 2936 2935 2938 2943 2943 2950 2947 2950 2950 2965 2971 2975 2988 3000 3008 3021 3029 3033 3049 3062 3067 3072 3078 3082 3089 3097 3099 3106 3109 3096 3097 3097 3098 3102 3106 3108 3110 3112 3112
2896 2902 2909 2916 2922 2926 2926 2927 2932 2939 2942 2942 2945 2946 2949 2957 2964 2967 2978 2989 2999 3012 3025 3028 3035 3055 3058 3056 3062 3073 3078 3085 3091 3093 3093 3096 3092 3092 3093 3098 3102 3103 3104 3105 3106
2891 2898 2905 2911 2918 2918 2918 2920 2926 2930 2939 2935 2936 2944 2944 2955 2960 2964 2966 2972 2988 3003 3014 3021 3028 3041 3051 3058 3064 3068 3070 3078 3084 3088 3089 3089 3086 3088 3092 3094 3096 3099 3100 3101 3102
2887 2895 2900 2905 2908 2910 2914 2915 2918 2923 2929 2931 2929 2935 2939 2948 2956 2963 2966 2980 2989 3000 3003 3011 3024 3040 3052 3054 3056 3057 3062 3070 3075 3079 3079 3087 3080 3085 3085 3091 3093 3094 3096 3096 3097
2885 2891 2897 2899 2901 2905 2908 2912 2913 2912 2918 2924 2922 2929 2935 2944 2949 2959 2967 2979 2987 2998 3002 3005 3013 3021 3023 3023 3038 3048 3055 3064 3071 3073 3073 3072 3076 3080 3082 3086 3088 3089 3090 3093 3095
2880 2884 2888 2890 2894 2898 2905 2906 2905 2904 2908 2918 2917 2913 2917 2935 2946 2952 2961 2976 2985 2990 2998 3002 3010 3021 3027 3030 3033 3037 3045 3054 3062 3058 3067 3059 3066 3075 3077 3080 3080 3083 3085 3089 3090
2875 2878 2883 2885 2888 2894 2897 2898 2900 2900 2901 2902 2908 2911 2920 2926 2935 2938 2952 2965 2966 2981 2989 2997 3008 3018 3023 3027 3030 3034 3040 3043 3046 3048 3056 3058 3056 3065 3069 3071 3074 3079 3079 3081 3081
2871 2875 2880 2882 2884 2887 2884 2885 2887 2893 2894 2898 2900 2908 2913 2915 2930 2940 2951 2952 2954 2963 2979 2992 2999 3007 3018 3023 3029 3034 3022 3029 3034 3043 3045 3050 3049 3057 3059 3065 3067 3071 3073 3072 3074